| time (UTC) | temp F | wind direction | speed knots | gust knots | rain 1hr in | rain 24hr in | rain mn in | humidity % | barometer mb |
| 20260507010850 | 42 | 216 | 1.7 | 2.6 | 0.00 | 0.00 | 0.29 | 91 | 1011.0 |
| 20260507010350 | 42 | 278 | 1.7 | 2.6 | 0.00 | 0.00 | 0.29 | 91 | 1011.0 |
| 20260507005849 | 42 | 238 | 1.7 | 3.5 | 0.00 | 0.00 | 0.29 | 91 | 1011.0 |
| 20260507005352 | 42 | 250 | 3.5 | 5.2 | 0.00 | 0.00 | 0.29 | 91 | 1011.0 |
| 20260507004849 | 42 | 241 | 3.5 | 3.5 | 0.00 | 0.00 | 0.29 | 91 | 1011.0 |
| 20260507004351 | 42 | 248 | 3.5 | 5.2 | 0.00 | 0.00 | 0.29 | 90 | 1011.0 |
| 20260507003850 | 42 | 266 | 4.3 | 5.2 | 0.00 | 0.00 | 0.29 | 90 | 1011.0 |
| 20260507003350 | 43 | 259 | 3.5 | 5.2 | 0.00 | 0.00 | 0.29 | 89 | 1011.0 |
| 20260507002849 | 43 | 235 | 3.5 | 4.3 | 0.00 | 0.00 | 0.29 | 89 | 1011.0 |
| 20260507002350 | 44 | 251 | 3.5 | 5.2 | 0.00 | 0.00 | 0.29 | 89 | 1011.0 |
| 20260507001850 | 44 | 258 | 4.3 | 5.2 | 0.00 | 0.00 | 0.29 | 88 | 1011.0 |
| 20260507001349 | 44 | 257 | 3.5 | 5.2 | 0.00 | 0.00 | 0.29 | 88 | 1010.0 |
| 20260507000852 | 44 | 261 | 4.3 | 5.2 | 0.00 | 0.00 | 0.29 | 88 | 1010.0 |
| 20260507000350 | 45 | 261 | 4.3 | 6.1 | 0.00 | 0.00 | 0.29 | 88 | 1010.0 |
| 20260506235850 | 45 | 259 | 5.2 | 6.1 | 0.00 | 0.00 | 0.29 | 88 | 1010.0 |
| 20260506235349 | 46 | 250 | 3.5 | 4.3 | 0.00 | 0.00 | 0.29 | 87 | 1010.0 |
| 20260506234850 | 46 | 266 | 2.6 | 2.6 | 0.00 | 0.00 | 0.29 | 86 | 1010.0 |
| 20260506234350 | 46 | 286 | 1.7 | 1.7 | 0.00 | 0.00 | 0.29 | 86 | 1010.0 |
| 20260506233849 | 46 | 319 | 0.9 | 0.9 | 0.00 | 0.00 | 0.29 | 86 | 1010.0 |
| 20260506233349 | 46 | 268 | 0.9 | 1.7 | 0.00 | 0.00 | 0.29 | 85 | 1010.0 |
| 20260506232849 | 46 | 0 | 0.0 | 0.0 | 0.00 | 0.00 | 0.29 | 85 | 1010.0 |
| 20260506232350 | 46 | 44 | 0.0 | 0.0 | 0.00 | 0.00 | 0.29 | 85 | 1010.0 |
| 20260506231849 | 46 | 31 | 0.9 | 1.7 | 0.00 | 0.00 | 0.29 | 85 | 1010.0 |
| 20260506231349 | 46 | 317 | 0.9 | 1.7 | 0.00 | 0.00 | 0.29 | 84 | 1010.0 |
| 20260506230851 | 46 | 280 | 0.9 | 1.7 | 0.00 | 0.00 | 0.29 | 84 | 1010.0 |
| 20260506230350 | 46 | 346 | 0.9 | 1.7 | 0.00 | 0.00 | 0.29 | 83 | 1010.0 |
| 20260506225849 | 47 | 323 | 0.9 | 1.7 | 0.00 | 0.00 | 0.29 | 82 | 1010.0 |
| 20260506225350 | 47 | 262 | 1.7 | 1.7 | 0.00 | 0.00 | 0.29 | 83 | 1010.0 |
| 20260506224849 | 47 | 16 | 0.0 | 0.9 | 0.00 | 0.00 | 0.29 | 82 | 1010.0 |
| 20260506224349 | 47 | 313 | 1.7 | 1.7 | 0.00 | 0.00 | 0.29 | 82 | 1010.0 |
| 20260506223849 | 47 | 103 | 0.0 | 0.0 | 0.00 | 0.00 | 0.29 | 82 | 1010.0 |
| 20260506223350 | 47 | 32 | 0.9 | 0.9 | 0.00 | 0.00 | 0.29 | 82 | 1010.0 |
| 20260506222850 | 47 | 355 | 0.9 | 1.7 | 0.00 | 0.00 | 0.29 | 82 | 1010.0 |
| 20260506222349 | 47 | 316 | 0.9 | 1.7 | 0.00 | 0.00 | 0.29 | 82 | 1010.0 |
| 20260506221850 | 48 | 42 | 0.9 | 0.9 | 0.00 | 0.00 | 0.29 | 82 | 1010.0 |
| 20260506221350 | 48 | 272 | 0.9 | 1.7 | 0.00 | 0.00 | 0.29 | 82 | 1010.0 |
| 20260506220849 | 48 | 10 | 0.9 | 1.7 | 0.00 | 0.00 | 0.29 | 82 | 1010.0 |
| 20260506220350 | 47 | 92 | 0.9 | 0.9 | 0.00 | 0.00 | 0.29 | 83 | 1010.0 |
| 20260506215849 | 47 | 78 | 0.9 | 1.7 | 0.00 | 0.00 | 0.29 | 83 | 1010.0 |
| 20260506215349 | 47 | 344 | 1.7 | 1.7 | 0.00 | 0.00 | 0.29 | 83 | 1010.0 |
| 20260506214850 | 47 | 7 | 1.7 | 2.6 | 0.00 | 0.00 | 0.29 | 82 | 1010.0 |
| 20260506214349 | 47 | 16 | 0.9 | 0.9 | 0.00 | 0.00 | 0.29 | 83 | 1010.0 |
| 20260506213851 | 47 | 175 | 0.9 | 1.7 | 0.00 | 0.00 | 0.29 | 83 | 1010.0 |
| 20260506213349 | 47 | 349 | 0.9 | 1.7 | 0.00 | 0.00 | 0.29 | 83 | 1010.0 |
| 20260506212850 | 47 | 295 | 1.7 | 3.5 | 0.00 | 0.00 | 0.29 | 83 | 1010.0 |
| 20260506212349 | 47 | 325 | 1.7 | 1.7 | 0.00 | 0.00 | 0.29 | 84 | 1010.0 |
| 20260506211849 | 47 | 335 | 4.3 | 6.1 | 0.00 | 0.00 | 0.29 | 82 | 1010.0 |
| 20260506211349 | 47 | 312 | 1.7 | 2.6 | 0.00 | 0.00 | 0.29 | 82 | 1009.0 |
| 20260506210849 | 47 | 353 | 3.5 | 4.3 | 0.00 | 0.00 | 0.29 | 81 | 1009.0 |
| 20260506210349 | 47 | 339 | 3.5 | 5.2 | 0.00 | 0.00 | 0.29 | 81 | 1009.0 |
| 20260506205849 | 47 | 340 | 4.3 | 5.2 | 0.00 | 0.00 | 0.29 | 82 | 1009.0 |
| 20260506205349 | 47 | 1 | 1.7 | 2.6 | 0.00 | 0.00 | 0.29 | 82 | 1009.0 |
| 20260506204850 | 47 | 19 | 3.5 | 4.3 | 0.00 | 0.00 | 0.29 | 83 | 1009.0 |
| 20260506204349 | 47 | 349 | 1.7 | 2.6 | 0.00 | 0.00 | 0.29 | 83 | 1009.0 |
| 20260506203850 | 47 | 336 | 4.3 | 5.2 | 0.00 | 0.00 | 0.29 | 82 | 1009.0 |
| 20260506203349 | 47 | 352 | 1.7 | 1.7 | 0.00 | 0.00 | 0.29 | 83 | 1009.0 |
| 20260506202849 | 47 | 27 | 1.7 | 1.7 | 0.00 | 0.00 | 0.29 | 83 | 1009.0 |
| 20260506202350 | 47 | 342 | 1.7 | 2.6 | 0.00 | 0.00 | 0.29 | 83 | 1009.0 |
| 20260506201849 | 46 | 347 | 2.6 | 4.3 | 0.00 | 0.00 | 0.29 | 84 | 1009.0 |
| 20260506201350 | 46 | 351 | 4.3 | 4.3 | 0.00 | 0.00 | 0.29 | 84 | 1009.0 |
| 20260506200849 | 46 | 32 | 2.6 | 4.3 | 0.00 | 0.00 | 0.29 | 83 | 1009.0 |
| 20260506200349 | 46 | 11 | 2.6 | 3.5 | 0.00 | 0.00 | 0.29 | 84 | 1009.0 |
| 20260506195849 | 46 | 16 | 1.7 | 2.6 | 0.00 | 0.00 | 0.29 | 84 | 1009.0 |
| 20260506195349 | 46 | 331 | 2.6 | 3.5 | 0.00 | 0.00 | 0.29 | 84 | 1009.0 |
| 20260506194849 | 46 | 328 | 1.7 | 2.6 | 0.00 | 0.00 | 0.29 | 85 | 1009.0 |
| 20260506194349 | 46 | 0 | 1.7 | 2.6 | 0.00 | 0.00 | 0.29 | 85 | 1009.0 |
| 20260506193849 | 47 | 21 | 1.7 | 2.6 | 0.00 | 0.00 | 0.29 | 85 | 1009.0 |
| 20260506193349 | 46 | 44 | 3.5 | 5.2 | 0.00 | 0.00 | 0.29 | 85 | 1009.0 |
| 20260506192850 | 46 | 353 | 3.5 | 4.3 | 0.00 | 0.00 | 0.29 | 86 | 1009.0 |
| 20260506192349 | 46 | 8 | 3.5 | 5.2 | 0.00 | 0.00 | 0.29 | 87 | 1009.0 |
| 20260506191850 | 46 | 3 | 3.5 | 6.1 | 0.00 | 0.00 | 0.29 | 87 | 1009.0 |
| 20260506191350 | 46 | 17 | 3.5 | 5.2 | 0.00 | 0.00 | 0.29 | 87 | 1009.0 |
| 20260506190849 | 45 | 6 | 3.5 | 4.3 | 0.00 | 0.00 | 0.29 | 87 | 1009.0 |
| 20260506190349 | 45 | 22 | 4.3 | 6.1 | 0.00 | 0.00 | 0.29 | 88 | 1009.0 |
| 20260506185850 | 45 | 9 | 3.5 | 4.3 | 0.00 | 0.00 | 0.29 | 88 | 1009.0 |
| 20260506185349 | 46 | 347 | 4.3 | 5.2 | 0.00 | 0.00 | 0.29 | 88 | 1009.0 |
| 20260506184850 | 46 | 8 | 1.7 | 2.6 | 0.00 | 0.00 | 0.29 | 88 | 1009.0 |
| 20260506184349 | 46 | 18 | 6.1 | 7.8 | 0.00 | 0.00 | 0.29 | 87 | 1009.0 |
| 20260506183852 | 46 | 7 | 4.3 | 6.1 | 0.00 | 0.00 | 0.29 | 88 | 1009.0 |
| 20260506183350 | 46 | 8 | 6.1 | 7.0 | 0.00 | 0.00 | 0.29 | 87 | 1009.0 |
| 20260506182849 | 46 | 0 | 1.7 | 3.5 | 0.00 | 0.00 | 0.29 | 88 | 1009.0 |
| 20260506182350 | 46 | 23 | 4.3 | 4.3 | 0.00 | 0.00 | 0.29 | 87 | 1009.0 |
| 20260506181850 | 46 | 348 | 5.2 | 7.0 | 0.00 | 0.00 | 0.29 | 87 | 1009.0 |
| 20260506181350 | 46 | 16 | 4.3 | 6.1 | 0.00 | 0.00 | 0.29 | 87 | 1009.0 |
| 20260506180849 | 46 | 27 | 4.3 | 6.1 | 0.00 | 0.00 | 0.29 | 86 | 1009.0 |
| 20260506180349 | 46 | 335 | 4.3 | 7.0 | 0.00 | 0.00 | 0.29 | 86 | 1008.0 |
| 20260506175850 | 45 | 41 | 5.2 | 7.8 | 0.00 | 0.00 | 0.29 | 87 | 1008.0 |
| 20260506175350 | 45 | 25 | 3.5 | 6.1 | 0.00 | 0.00 | 0.29 | 87 | 1008.0 |
| 20260506174850 | 45 | 49 | 6.1 | 8.7 | 0.00 | 0.00 | 0.29 | 87 | 1008.0 |
| 20260506174349 | 45 | 43 | 6.1 | 8.7 | 0.00 | 0.00 | 0.29 | 87 | 1008.0 |
| 20260506173849 | 46 | 15 | 4.3 | 5.2 | 0.00 | 0.00 | 0.29 | 87 | 1008.0 |
| 20260506173349 | 46 | 0 | 5.2 | 7.8 | 0.00 | 0.00 | 0.29 | 87 | 1008.0 |
| 20260506172849 | 46 | 33 | 4.3 | 6.1 | 0.00 | 0.00 | 0.29 | 87 | 1008.0 |
| 20260506172350 | 46 | 48 | 7.0 | 10.4 | 0.00 | 0.00 | 0.29 | 88 | 1008.0 |
| 20260506171850 | 45 | 10 | 3.5 | 7.0 | 0.00 | 0.00 | 0.29 | 89 | 1008.0 |
| 20260506171349 | 45 | 21 | 4.3 | 7.0 | 0.00 | 0.00 | 0.29 | 89 | 1008.0 |
| 20260506170850 | 45 | 44 | 4.3 | 5.2 | 0.00 | 0.00 | 0.29 | 89 | 1008.0 |
| 20260506170350 | 45 | 11 | 6.1 | 7.8 | 0.00 | 0.00 | 0.28 | 89 | 1008.0 |
| 20260506165849 | 45 | 47 | 5.2 | 8.7 | 0.00 | 0.00 | 0.28 | 90 | 1008.0 |
| 20260506165350 | 45 | 17 | 5.2 | 7.8 | 0.00 | 0.00 | 0.28 | 90 | 1008.0 |
| 20260506164849 | 45 | 352 | 3.5 | 6.1 | 0.00 | 0.00 | 0.28 | 90 | 1008.0 |
| 20260506164351 | 45 | 30 | 4.3 | 6.1 | 0.00 | 0.00 | 0.28 | 90 | 1008.0 |
| 20260506163850 | 45 | 17 | 6.1 | 7.8 | 0.00 | 0.00 | 0.28 | 90 | 1008.0 |
| 20260506163351 | 45 | 13 | 4.3 | 7.8 | 0.00 | 0.00 | 0.28 | 90 | 1008.0 |
| 20260506162850 | 45 | 23 | 5.2 | 7.8 | 0.00 | 0.00 | 0.28 | 90 | 1008.0 |
| 20260506162349 | 45 | 26 | 6.1 | 7.8 | 0.00 | 0.00 | 0.30 | 90 | 1008.0 |
| 20260506161850 | 45 | 14 | 4.3 | 6.1 | 0.00 | 0.00 | 0.30 | 91 | 1008.0 |
| 20260506161349 | 45 | 12 | 7.8 | 9.6 | 0.00 | 0.00 | 0.30 | 90 | 1008.0 |
| 20260506160850 | 45 | 22 | 4.3 | 6.1 | 0.00 | 0.00 | 0.30 | 90 | 1009.0 |
| 20260506160350 | 45 | 21 | 2.6 | 4.3 | 0.00 | 0.00 | 0.29 | 91 | 1009.0 |
| 20260506155850 | 44 | 28 | 5.2 | 7.8 | 0.00 | 0.00 | 0.29 | 91 | 1009.0 |
| 20260506155349 | 44 | 43 | 3.5 | 4.3 | 0.01 | 0.00 | 0.29 | 91 | 1009.0 |
| 20260506154850 | 44 | 16 | 5.2 | 7.0 | 0.02 | 0.00 | 0.28 | 90 | 1009.0 |
| 20260506154349 | 44 | 28 | 5.2 | 7.8 | 0.01 | 0.00 | 0.28 | 90 | 1009.0 |
| 20260506153849 | 45 | 13 | 4.3 | 6.1 | 0.07 | 0.00 | 0.27 | 89 | 1009.0 |
| 20260506153349 | 45 | 29 | 2.6 | 3.5 | 0.01 | 0.00 | 0.27 | 88 | 1009.0 |
| 20260506152849 | 45 | 15 | 2.6 | 4.3 | 0.00 | 0.00 | 0.27 | 87 | 1009.0 |
| 20260506152349 | 45 | 43 | 5.2 | 7.0 | 0.00 | 0.00 | 0.27 | 86 | 1009.0 |
| 20260506151849 | 45 | 50 | 6.1 | 7.8 | 0.00 | 0.00 | 0.27 | 87 | 1009.0 |
| 20260506151350 | 45 | 40 | 7.0 | 9.6 | 0.00 | 0.00 | 0.27 | 87 | 1008.0 |
| 20260506150850 | 45 | 4 | 5.2 | 7.0 | 0.00 | 0.00 | 0.27 | 87 | 1008.0 |
| 20260506150350 | 45 | 30 | 3.5 | 4.3 | 0.00 | 0.00 | 0.27 | 87 | 1008.0 |
| 20260506145850 | 45 | 21 | 4.3 | 6.1 | 0.00 | 0.00 | 0.27 | 87 | 1008.0 |
| 20260506145349 | 45 | 25 | 5.2 | 7.8 | 0.00 | 0.00 | 0.27 | 87 | 1008.0 |
| 20260506144850 | 44 | 51 | 8.7 | 11.3 | 0.01 | 0.00 | 0.26 | 87 | 1008.0 |
| 20260506144350 | 44 | 45 | 7.0 | 10.4 | 0.00 | 0.00 | 0.26 | 88 | 1008.0 |
| 20260506143850 | 44 | 49 | 7.0 | 11.3 | 0.00 | 0.00 | 0.26 | 89 | 1008.0 |
| 20260506143349 | 44 | 54 | 6.1 | 8.7 | 0.00 | 0.00 | 0.26 | 89 | 1008.0 |
| 20260506142850 | 44 | 46 | 4.3 | 5.2 | 0.01 | 0.00 | 0.26 | 89 | 1008.0 |
| 20260506142350 | 44 | 10 | 4.3 | 5.2 | 0.00 | 0.00 | 0.27 | 89 | 1008.0 |
| 20260506141849 | 44 | 29 | 6.1 | 11.3 | 0.00 | 0.00 | 0.27 | 89 | 1008.0 |
| 20260506141349 | 44 | 37 | 5.2 | 6.1 | 0.00 | 0.00 | 0.27 | 89 | 1008.0 |
| 20260506140849 | 44 | 50 | 8.7 | 11.3 | 0.00 | 0.00 | 0.27 | 88 | 1008.0 |
| 20260506140350 | 44 | 45 | 5.2 | 6.1 | 0.00 | 0.00 | 0.25 | 89 | 1008.0 |
| 20260506135850 | 44 | 46 | 7.8 | 9.6 | 0.01 | 0.00 | 0.25 | 88 | 1008.0 |
| 20260506135350 | 44 | 48 | 4.3 | 8.7 | 0.01 | 0.00 | 0.25 | 89 | 1009.0 |
| 20260506134850 | 44 | 36 | 4.3 | 5.2 | 0.02 | 0.00 | 0.25 | 89 | 1009.0 |
| 20260506134349 | 44 | 49 | 4.3 | 6.1 | 0.01 | 0.00 | 0.25 | 89 | 1009.0 |
| 20260506133849 | 44 | 42 | 7.0 | 7.8 | 0.01 | 0.00 | 0.25 | 89 | 1008.0 |
| 20260506133349 | 44 | 34 | 4.3 | 6.1 | 0.01 | 0.00 | 0.24 | 89 | 1009.0 |
| 20260506132850 | 44 | 47 | 7.0 | 8.7 | 0.01 | 0.00 | 0.24 | 89 | 1009.0 |
| 20260506132349 | 44 | 35 | 7.0 | 9.6 | 0.00 | 0.00 | 0.25 | 89 | 1008.0 |
| 20260506131849 | 43 | 54 | 3.5 | 5.2 | 0.00 | 0.00 | 0.25 | 89 | 1009.0 |
| 20260506131350 | 44 | 59 | 5.2 | 5.2 | 0.00 | 0.00 | 0.25 | 89 | 1008.0 |
| 20260506130849 | 44 | 35 | 6.1 | 7.8 | 0.00 | 0.00 | 0.25 | 89 | 1008.0 |
| 20260506130352 | 44 | 40 | 7.0 | 9.6 | 0.00 | 0.00 | 0.25 | 89 | 1008.0 |
| 20260506125849 | 44 | 31 | 6.1 | 8.7 | 0.00 | 0.00 | 0.25 | 90 | 1009.0 |
| 20260506125350 | 43 | 52 | 4.3 | 5.2 | 0.01 | 0.00 | 0.25 | 90 | 1009.0 |
| 20260506124850 | 44 | 44 | 5.2 | 7.0 | 0.00 | 0.00 | 0.24 | 90 | 1009.0 |
| 20260506124350 | 44 | 29 | 5.2 | 7.0 | 0.00 | 0.00 | 0.24 | 90 | 1009.0 |
| 20260506123849 | 44 | 23 | 5.2 | 7.0 | 0.00 | 0.00 | 0.24 | 90 | 1009.0 |
| 20260506123349 | 44 | 47 | 3.5 | 5.2 | 0.00 | 0.00 | 0.24 | 90 | 1009.0 |
| 20260506122849 | 43 | 32 | 4.3 | 5.2 | 0.01 | 0.00 | 0.24 | 91 | 1009.0 |
| 20260506122349 | 43 | 30 | 4.3 | 7.0 | 0.02 | 0.00 | 0.25 | 91 | 1009.0 |
| 20260506121849 | 43 | 51 | 6.1 | 7.8 | 0.00 | 0.00 | 0.24 | 92 | 1008.0 |
| 20260506121350 | 43 | 47 | 7.8 | 11.3 | 0.00 | 0.00 | 0.24 | 92 | 1008.0 |
| 20260506120854 | 43 | 46 | 7.0 | 9.6 | 0.02 | 0.00 | 0.24 | 92 | 1008.0 |
| 20260506120350 | 43 | 45 | 3.5 | 5.2 | 0.00 | 0.00 | 0.23 | 92 | 1008.0 |
| 20260506115849 | 43 | 34 | 5.2 | 6.1 | 0.01 | 0.00 | 0.23 | 92 | 1009.0 |
| 20260506115349 | 43 | 40 | 3.5 | 3.5 | 0.00 | 0.00 | 0.23 | 92 | 1009.0 |
| 20260506114849 | 43 | 26 | 2.6 | 3.5 | 0.00 | 0.00 | 0.23 | 91 | 1009.0 |
| 20260506114349 | 43 | 37 | 3.5 | 5.2 | 0.01 | 0.00 | 0.23 | 91 | 1009.0 |
| 20260506113850 | 43 | 24 | 3.5 | 5.2 | 0.01 | 0.00 | 0.23 | 91 | 1009.0 |
| 20260506113350 | 43 | 51 | 3.5 | 4.3 | 0.01 | 0.00 | 0.22 | 91 | 1009.0 |
| 20260506112849 | 43 | 34 | 3.5 | 4.3 | 0.02 | 0.00 | 0.22 | 91 | 1009.0 |
| 20260506112349 | 43 | 27 | 2.6 | 3.5 | 0.04 | 0.00 | 0.23 | 91 | 1009.0 |
| 20260506111849 | 43 | 46 | 3.5 | 4.3 | 0.03 | 0.00 | 0.22 | 91 | 1009.0 |
| 20260506111350 | 43 | 27 | 2.6 | 3.5 | 0.04 | 0.00 | 0.22 | 91 | 1009.0 |
| 20260506110849 | 43 | 35 | 4.3 | 6.1 | 0.02 | 0.00 | 0.21 | 91 | 1009.0 |
| 20260506110349 | 43 | 23 | 2.6 | 3.5 | 0.02 | 0.00 | 0.21 | 91 | 1009.0 |
| 20260506105849 | 43 | 30 | 4.3 | 7.0 | 0.03 | 0.00 | 0.20 | 91 | 1009.0 |
| 20260506105349 | 43 | 19 | 1.7 | 2.6 | 0.00 | 0.00 | 0.20 | 91 | 1009.0 |
| 20260506104851 | 43 | 39 | 3.5 | 4.3 | 0.00 | 0.00 | 0.20 | 91 | 1009.0 |
| 20260506104350 | 43 | 50 | 3.5 | 4.3 | 0.01 | 0.00 | 0.20 | 91 | 1009.0 |
| 20260506103849 | 43 | 41 | 4.3 | 6.1 | 0.02 | 0.00 | 0.19 | 91 | 1009.0 |
| 20260506103349 | 43 | 42 | 3.5 | 4.3 | 0.00 | 0.00 | 0.19 | 92 | 1009.0 |
| 20260506102849 | 43 | 48 | 3.5 | 6.1 | 0.01 | 0.00 | 0.18 | 92 | 1009.0 |
| 20260506102350 | 43 | 16 | 4.3 | 5.2 | 0.01 | 0.00 | 0.19 | 91 | 1009.0 |
| 20260506101850 | 43 | 52 | 5.2 | 5.2 | 0.03 | 0.00 | 0.19 | 91 | 1009.0 |
| 20260506101350 | 43 | 43 | 4.3 | 5.2 | 0.09 | 0.00 | 0.18 | 91 | 1009.0 |
| 20260506100849 | 43 | 23 | 2.6 | 3.5 | 0.20 | 0.00 | 0.17 | 91 | 1009.0 |
| 20260506100349 | 43 | 28 | 1.7 | 1.7 | 0.17 | 0.00 | 0.15 | 91 | 1009.0 |
| 20260506095849 | 43 | 39 | 1.7 | 1.7 | 0.06 | 0.00 | 0.14 | 91 | 1009.0 |
| 20260506095349 | 43 | 50 | 1.7 | 2.6 | 0.10 | 0.00 | 0.14 | 91 | 1009.0 |
| 20260506094849 | 43 | 56 | 2.6 | 3.5 | 0.06 | 0.00 | 0.13 | 91 | 1009.0 |
| 20260506094349 | 43 | 60 | 1.7 | 2.6 | 0.02 | 0.00 | 0.12 | 90 | 1009.0 |
| 20260506093849 | 43 | 48 | 2.6 | 3.5 | 0.01 | 0.00 | 0.12 | 90 | 1009.0 |
| 20260506093349 | 43 | 11 | 1.7 | 1.7 | 0.01 | 0.00 | 0.11 | 90 | 1009.0 |
| 20260506092849 | 43 | 65 | 1.7 | 1.7 | 0.01 | 0.00 | 0.11 | 90 | 1009.0 |
| 20260506092349 | 43 | 65 | 1.7 | 2.6 | 0.03 | 0.00 | 0.12 | 90 | 1009.0 |
| 20260506091850 | 43 | 81 | 1.7 | 2.6 | 0.03 | 0.00 | 0.11 | 90 | 1009.0 |
| 20260506091349 | 44 | 89 | 1.7 | 2.6 | 0.01 | 0.00 | 0.11 | 90 | 1009.0 |
| 20260506090849 | 44 | 85 | 2.6 | 2.6 | 0.01 | 0.00 | 0.11 | 90 | 1009.0 |
| 20260506090349 | 44 | 61 | 2.6 | 2.6 | 0.01 | 0.00 | 0.10 | 90 | 1009.0 |
| 20260506085849 | 44 | 52 | 2.6 | 3.5 | 0.01 | 0.00 | 0.10 | 90 | 1009.0 |
| 20260506085351 | 44 | 61 | 1.7 | 3.5 | 0.01 | 0.00 | 0.09 | 91 | 1009.0 |
| 20260506084849 | 44 | 78 | 2.6 | 3.5 | 0.01 | 0.00 | 0.09 | 91 | 1009.0 |
| 20260506084349 | 44 | 74 | 1.7 | 2.6 | 0.01 | 0.00 | 0.09 | 91 | 1009.0 |
| 20260506083850 | 44 | 64 | 3.5 | 4.3 | 0.03 | 0.00 | 0.09 | 91 | 1009.0 |
| 20260506083349 | 44 | 52 | 3.5 | 4.3 | 0.01 | 0.00 | 0.08 | 92 | 1009.0 |
| 20260506082850 | 44 | 76 | 1.7 | 2.6 | 0.01 | 0.00 | 0.08 | 92 | 1009.0 |
| 20260506082352 | 44 | 66 | 2.6 | 3.5 | 0.00 | 0.00 | 0.09 | 92 | 1009.0 |
| 20260506081849 | 44 | 80 | 1.7 | 2.6 | 0.00 | 0.00 | 0.09 | 92 | 1009.0 |
| 20260506081351 | 44 | 64 | 0.9 | 1.7 | 0.00 | 0.00 | 0.09 | 92 | 1010.0 |
| 20260506080849 | 44 | 36 | 2.6 | 3.5 | 0.00 | 0.00 | 0.09 | 92 | 1009.0 |
| 20260506080349 | 44 | 42 | 2.6 | 3.5 | 0.02 | 0.00 | 0.08 | 92 | 1009.0 |
| 20260506073349 | 44 | 36 | 1.7 | 1.7 | 0.00 | 0.00 | 0.07 | 92 | 1010.0 |
| 20260506072850 | 44 | 17 | 0.0 | 0.9 | 0.00 | 0.00 | 0.07 | 92 | 1010.0 |
| 20260506072349 | 44 | 340 | 0.0 | 1.7 | 0.01 | 0.00 | 0.07 | 92 | 1010.0 |
| 20260506071849 | 44 | 53 | 1.7 | 3.5 | 0.00 | 0.00 | 0.07 | 92 | 1009.0 |
| 20260506071352 | 44 | 71 | 1.7 | 2.6 | 0.01 | 0.00 | 0.07 | 92 | 1009.0 |
| 20260506070849 | 44 | 251 | 0.0 | 0.9 | 0.02 | 0.00 | 0.06 | 91 | 1010.0 |
| 20260506070349 | 44 | 38 | 0.9 | 1.7 | 0.01 | 0.00 | 0.06 | 91 | 1009.0 |
| 20260506062352 | 44 | 71 | 0.9 | 1.7 | 0.00 | 0.00 | 0.06 | 90 | 1010.0 |
| 20260506061850 | 44 | 39 | 0.9 | 1.7 | 0.00 | 0.00 | 0.05 | 90 | 1010.0 |
| 20260506061349 | 44 | 96 | 1.7 | 3.5 | 0.00 | 0.00 | 0.05 | 90 | 1010.0 |
| 20260506060850 | 44 | 105 | 3.5 | 4.3 | 0.00 | 0.00 | 0.05 | 90 | 1010.0 |
| 20260506060349 | 44 | 124 | 0.9 | 1.7 | 0.00 | 0.00 | 0.05 | 90 | 1010.0 |
| 20260506051350 | 46 | 148 | 0.0 | 0.9 | 0.00 | 0.00 | 0.03 | 93 | 1011.0 |
| 20260506050849 | 46 | 126 | 1.7 | 1.7 | 0.00 | 0.00 | 0.03 | 93 | 1010.0 |
| 20260506050350 | 46 | 103 | 1.7 | 2.6 | 0.01 | 0.00 | 0.02 | 93 | 1010.0 |
| 20260506044850 | 46 | 0 | 0.0 | 0.0 | 0.00 | 0.00 | 0.02 | 93 | 1011.0 |
| 20260506044349 | 46 | 86 | 0.0 | 0.0 | 0.00 | 0.00 | 0.02 | 93 | 1011.0 |
| 20260506043849 | 46 | 43 | 1.7 | 2.6 | 0.00 | 0.00 | 0.01 | 93 | 1010.0 |
| 20260506043349 | 45 | 126 | 0.0 | 0.0 | 0.01 | 0.00 | 0.01 | 93 | 1011.0 |
| 20260506042849 | 45 | 104 | 0.0 | 0.0 | 0.02 | 0.00 | 0.01 | 93 | 1010.0 |
| 20260506042349 | 45 | 93 | 0.9 | 1.7 | 0.01 | 0.00 | 0.01 | 93 | 1010.0 |
| 20260506041850 | 45 | 79 | 0.0 | 0.9 | 0.00 | 0.00 | 0.00 | 93 | 1010.0 |
| 20260506041349 | 45 | 0 | 0.0 | 0.0 | 0.01 | 0.00 | 0.00 | 93 | 1010.0 |
| 20260506040849 | 45 | 358 | 0.0 | 0.0 | 0.01 | 0.00 | 0.00 | 93 | 1010.0 |
| 20260506040349 | 45 | 15 | 0.0 | 0.9 | 0.01 | 0.00 | 0.00 | 93 | 1010.0 |
| 20260506035851 | 45 | 321 | 0.0 | 0.9 | 0.01 | 0.00 | 0.42 | 93 | 1010.0 |
| 20260506035349 | 45 | 251 | 0.0 | 0.9 | 0.01 | 0.00 | 0.42 | 93 | 1010.0 |
| 20260506034849 | 45 | 0 | 0.0 | 0.0 | 0.01 | 0.00 | 0.41 | 93 | 1010.0 |
| 20260506034349 | 45 | 132 | 0.9 | 1.7 | 0.00 | 0.00 | 0.41 | 93 | 1010.0 |
| 20260506033849 | 45 | 148 | 0.9 | 1.7 | 0.03 | 0.00 | 0.41 | 93 | 1010.0 |
| 20260506033350 | 45 | 119 | 1.7 | 2.6 | 0.02 | 0.00 | 0.40 | 93 | 1011.0 |
| 20260506032851 | 45 | 113 | 0.9 | 2.6 | 0.04 | 0.00 | 0.40 | 93 | 1011.0 |
| 20260506032350 | 45 | 0 | 0.0 | 0.0 | 0.14 | 0.00 | 0.41 | 93 | 1011.0 |
| 20260506031849 | 45 | 204 | 0.0 | 1.7 | 0.06 | 0.00 | 0.39 | 93 | 1011.0 |
| 20260506031350 | 45 | 286 | 0.0 | 1.7 | 0.04 | 0.00 | 0.38 | 92 | 1011.0 |
| 20260506030350 | 45 | 263 | 2.6 | 4.3 | 0.01 | 0.00 | 0.37 | 92 | 1011.0 |
| 20260506025849 | 46 | 264 | 2.6 | 3.5 | 0.03 | 0.00 | 0.37 | 92 | 1011.0 |
| 20260506025349 | 46 | 277 | 1.7 | 3.5 | 0.00 | 0.00 | 0.37 | 92 | 1011.0 |
| 20260506024849 | 46 | 271 | 0.0 | 0.9 | 0.03 | 0.00 | 0.36 | 92 | 1010.0 |
| 20260506024349 | 46 | 289 | 0.0 | 0.9 | 0.02 | 0.00 | 0.36 | 92 | 1010.0 |
| 20260506023849 | 46 | 277 | 1.7 | 1.7 | 0.05 | 0.00 | 0.36 | 92 | 1010.0 |
| 20260506023349 | 46 | 311 | 0.9 | 1.7 | 0.09 | 0.00 | 0.35 | 92 | 1010.0 |
| 20260506022849 | 46 | 0 | 0.0 | 0.0 | 0.07 | 0.00 | 0.34 | 92 | 1010.0 |
| 20260506022350 | 46 | 325 | 0.0 | 1.7 | 0.09 | 0.00 | 0.34 | 92 | 1010.0 |
| 20260506021849 | 46 | 9 | 0.0 | 0.9 | 0.10 | 0.00 | 0.33 | 92 | 1010.0 |
| 20260506021349 | 46 | 16 | 0.0 | 0.9 | 0.07 | 0.00 | 0.32 | 92 | 1010.0 |
| 20260506020849 | 46 | 0 | 0.0 | 0.0 | 0.03 | 0.00 | 0.31 | 92 | 1010.0 |
| 20260506020350 | 46 | 260 | 1.7 | 2.6 | 0.13 | 0.00 | 0.31 | 92 | 1010.0 |
| 20260506015849 | 46 | 338 | 0.0 | 0.9 | 0.13 | 0.00 | 0.30 | 92 | 1010.0 |
| 20260506015349 | 46 | 273 | 0.0 | 0.9 | 0.09 | 0.00 | 0.29 | 92 | 1010.0 |
| 20260506014850 | 46 | 237 | 0.0 | 1.7 | 0.09 | 0.00 | 0.28 | 91 | 1010.0 |
| 20260506014349 | 46 | 0 | 0.0 | 0.0 | 0.16 | 0.00 | 0.27 | 91 | 1010.0 |
| 20260506013850 | 46 | 0 | 0.0 | 0.0 | 0.14 | 0.00 | 0.26 | 91 | 1010.0 |
| 20260506013349 | 46 | 153 | 0.0 | 0.9 | 0.11 | 0.00 | 0.25 | 91 | 1010.0 |
| 20260506012849 | 46 | 250 | 0.0 | 0.9 | 0.10 | 0.00 | 0.24 | 91 | 1010.0 |
| 20260506012349 | 47 | 0 | 0.0 | 0.0 | 0.06 | 0.00 | 0.23 | 91 | 1010.0 |
| 20260506011849 | 47 | 232 | 0.9 | 1.7 | 0.05 | 0.00 | 0.22 | 91 | 1010.0 |
| 20260506011349 | 47 | 205 | 0.0 | 1.7 | 0.03 | 0.00 | 0.22 | 91 | 1010.0 |